SL-16 R/B

Last updated on Sat Jul 05 2025 00:02:14 GMT+0000 (Coordinated Universal Time)

1 31793U 07029B 25185.61480332 .00000206 00000+0 13163-3 0 9993 2 31793 70.9761 333.8334 0001962 278.6072 157.4878 14.14785010930285
UTC large
Height (km)
Speed (km/s)
/
Latitude / Longitude
Inclination (degrees)
Orbital Period (minutes)
Azimuth
Elevation
Range (km)
Doppler Factor

Next 0 passes for location: London (51.5072 / 0.1276)

Sorry there are no passes over London.